Wetterdaten: Woche 19.11.12 - 25.11.12 (KW47)
Datum Zeit Temperatur Luftfeuchte Luftdruck Niederschlag Windrichtung Sonnenschein Solar Wind
19.11.2012 00:00 1,3 C 98 % 1016,1 hPa 0,0 l/m N 0,00 h 0 W/m 0,8 km/h (0 Bft)
19.11.2012 01:00 1,3 C 98 % 1016,1 hPa 0,0 l/m N 0,00 h 0 W/m 0,4 km/h (0 Bft)
19.11.2012 02:00 1,2 C 98 % 1016,2 hPa 0,0 l/m N 0,00 h 0 W/m 1,2 km/h (1 Bft)
19.11.2012 03:00 1,0 C 98 % 1016,2 hPa 0,0 l/m SW 0,00 h 0 W/m 3,6 km/h (1 Bft)
19.11.2012 04:00 0,8 C 98 % 1016,1 hPa 0,2 l/m SW 0,00 h 0 W/m 2,5 km/h (1 Bft)
19.11.2012 05:00 0,3 C 98 % 1016,3 hPa 0,0 l/m SW 0,00 h 0 W/m 4,0 km/h (1 Bft)
19.11.2012 06:00 0,2 C 98 % 1016,7 hPa 0,0 l/m SW 0,00 h 0 W/m 5,5 km/h (1 Bft)
19.11.2012 07:00 -0,1 C 98 % 1016,9 hPa 0,0 l/m NW 0,00 h 5 W/m 5,3 km/h (1 Bft)
19.11.2012 08:00 0,5 C 99 % 1017,1 hPa 0,0 l/m NW 0,00 h 23 W/m 5,2 km/h (1 Bft)
19.11.2012 09:00 1,3 C 99 % 1017,2 hPa 0,0 l/m NW 0,00 h 47 W/m 7,9 km/h (2 Bft)
19.11.2012 10:00 2,1 C 99 % 1017,4 hPa 0,0 l/m N 0,00 h 71 W/m 6,1 km/h (2 Bft)
19.11.2012 11:00 2,9 C 99 % 1017,3 hPa 0,0 l/m N 0,00 h 80 W/m 6,4 km/h (2 Bft)
19.11.2012 12:00 3,5 C 99 % 1016,6 hPa 0,0 l/m N 0,00 h 107 W/m 5,5 km/h (1 Bft)
19.11.2012 13:00 3,9 C 99 % 1016,4 hPa 0,0 l/m N 0,00 h 81 W/m 7,2 km/h (2 Bft)
19.11.2012 14:00 4,0 C 98 % 1016,4 hPa 0,0 l/m N 0,00 h 39 W/m 7,1 km/h (2 Bft)
19.11.2012 15:00 3,8 C 98 % 1016,5 hPa 0,0 l/m NO 0,00 h 17 W/m 8,4 km/h (2 Bft)
19.11.2012 16:00 3,6 C 98 % 1016,8 hPa 0,0 l/m NO 0,00 h 7 W/m 7,2 km/h (2 Bft)
19.11.2012 17:00 3,3 C 98 % 1017,2 hPa 0,0 l/m NO 0,00 h 0 W/m 5,1 km/h (1 Bft)
19.11.2012 18:00 3,0 C 98 % 1017,4 hPa 0,0 l/m NO 0,00 h 0 W/m 4,8 km/h (1 Bft)
19.11.2012 19:00 2,8 C 98 % 1017,6 hPa 0,0 l/m NO 0,00 h 0 W/m 4,0 km/h (1 Bft)
19.11.2012 20:00 2,7 C 98 % 1017,8 hPa 0,0 l/m N 0,00 h 0 W/m 2,9 km/h (1 Bft)
19.11.2012 21:00 2,6 C 98 % 1018,2 hPa 0,0 l/m N 0,00 h 0 W/m 1,6 km/h (1 Bft)
19.11.2012 22:00 2,5 C 98 % 1018,3 hPa 0,0 l/m N 0,00 h 0 W/m 1,5 km/h (1 Bft)
19.11.2012 23:00 2,4 C 98 % 1018,6 hPa 0,0 l/m NO 0,00 h 0 W/m 2,5 km/h (1 Bft)
20.11.2012 00:00 2,3 C 98 % 1018,7 hPa 0,0 l/m NO 0,00 h 0 W/m 2,9 km/h (1 Bft)
20.11.2012 01:00 2,0 C 98 % 1018,5 hPa 0,0 l/m N 0,00 h 0 W/m 2,1 km/h (1 Bft)
20.11.2012 02:00 1,9 C 98 % 1018,9 hPa 0,0 l/m NO 0,00 h 0 W/m 3,1 km/h (1 Bft)
20.11.2012 03:00 1,7 C 98 % 1018,9 hPa 0,0 l/m NO 0,00 h 0 W/m 3,3 km/h (1 Bft)
20.11.2012 04:00 1,6 C 99 % 1018,9 hPa 0,0 l/m NO 0,00 h 0 W/m 3,1 km/h (1 Bft)
20.11.2012 05:00 1,7 C 99 % 1019,1 hPa 0,2 l/m NO 0,00 h 0 W/m 3,1 km/h (1 Bft)
20.11.2012 06:00 2,0 C 99 % 1019,2 hPa 0,0 l/m NO 0,00 h 0 W/m 3,9 km/h (1 Bft)
20.11.2012 07:00 2,3 C 99 % 1019,2 hPa 0,0 l/m NO 0,00 h 0 W/m 3,6 km/h (1 Bft)
20.11.2012 08:00 2,6 C 99 % 1019,5 hPa 0,0 l/m NO 0,00 h 10 W/m 2,3 km/h (1 Bft)
20.11.2012 09:00 2,8 C 99 % 1019,5 hPa 0,0 l/m NO 0,00 h 24 W/m 3,5 km/h (1 Bft)
20.11.2012 10:00 3,0 C 99 % 1019,5 hPa 0,0 l/m NO 0,00 h 39 W/m 3,2 km/h (1 Bft)
20.11.2012 11:00 3,4 C 99 % 1019,4 hPa 0,0 l/m NO 0,00 h 50 W/m 4,9 km/h (1 Bft)
20.11.2012 12:00 3,5 C 99 % 1019,3 hPa 0,0 l/m NO 0,00 h 51 W/m 4,3 km/h (1 Bft)
20.11.2012 13:00 3,7 C 99 % 1019,1 hPa 0,0 l/m NO 0,00 h 48 W/m 4,7 km/h (1 Bft)
20.11.2012 14:00 3,9 C 99 % 1019,0 hPa 0,0 l/m N 0,00 h 34 W/m 1,7 km/h (1 Bft)
20.11.2012 15:00 3,9 C 99 % 1018,9 hPa 0,0 l/m NO 0,00 h 17 W/m 2,9 km/h (1 Bft)
20.11.2012 16:00 3,7 C 99 % 1018,9 hPa 0,0 l/m NO 0,00 h 6 W/m 3,1 km/h (1 Bft)
20.11.2012 17:00 3,2 C 98 % 1019,1 hPa 0,0 l/m NO 0,00 h 0 W/m 2,5 km/h (1 Bft)
20.11.2012 18:00 2,8 C 98 % 1019,1 hPa 0,0 l/m NO 0,00 h 0 W/m 3,1 km/h (1 Bft)
20.11.2012 19:00 2,5 C 98 % 1019,1 hPa 0,0 l/m NO 0,00 h 0 W/m 2,7 km/h (1 Bft)
20.11.2012 20:00 2,3 C 98 % 1019,2 hPa 0,0 l/m NO 0,00 h 0 W/m 3,1 km/h (1 Bft)
20.11.2012 21:00 2,0 C 98 % 1019,3 hPa 0,0 l/m NO 0,00 h 0 W/m 3,5 km/h (1 Bft)
20.11.2012 22:00 1,6 C 98 % 1019,1 hPa 0,0 l/m NO 0,00 h 0 W/m 2,7 km/h (1 Bft)
20.11.2012 23:00 1,3 C 98 % 1018,7 hPa 0,0 l/m NO 0,00 h 0 W/m 2,8 km/h (1 Bft)
21.11.2012 00:00 1,2 C 98 % 1018,7 hPa 0,0 l/m NO 0,00 h 0 W/m 3,1 km/h (1 Bft)
21.11.2012 01:00 0,8 C 98 % 1018,4 hPa 0,0 l/m NO 0,00 h 0 W/m 3,5 km/h (1 Bft)
21.11.2012 02:00 0,7 C 98 % 1018,4 hPa 0,0 l/m N 0,00 h 0 W/m 2,1 km/h (1 Bft)
21.11.2012 03:00 0,4 C 98 % 1018,3 hPa 0,0 l/m N 0,00 h 0 W/m 1,3 km/h (1 Bft)
21.11.2012 04:00 0,3 C 98 % 1018,0 hPa 0,0 l/m NO 0,00 h 0 W/m 2,9 km/h (1 Bft)
21.11.2012 05:00 0,1 C 98 % 1017,8 hPa 0,0 l/m N 0,00 h 0 W/m 1,5 km/h (1 Bft)
21.11.2012 06:00 -0,1 C 98 % 1017,7 hPa 0,0 l/m N 0,00 h 0 W/m 1,9 km/h (1 Bft)
21.11.2012 07:00 -0,2 C 99 % 1018,0 hPa 0,0 l/m N 0,00 h 5 W/m 1,2 km/h (1 Bft)
21.11.2012 08:00 -0,1 C 99 % 1018,4 hPa 0,0 l/m NO 0,00 h 14 W/m 2,8 km/h (1 Bft)
21.11.2012 09:00 0,1 C 99 % 1018,7 hPa 0,0 l/m NO 0,00 h 34 W/m 3,7 km/h (1 Bft)
21.11.2012 10:00 0,4 C 99 % 1018,9 hPa 0,0 l/m N-NO 0,00 h 55 W/m 6,4 km/h (2 Bft)
21.11.2012 11:00 0,7 C 99 % 1018,7 hPa 0,0 l/m NW 0,00 h 75 W/m 6,7 km/h (2 Bft)
21.11.2012 12:00 1,3 C 98 % 1018,5 hPa 0,0 l/m W 0,00 h 81 W/m 4,7 km/h (1 Bft)
21.11.2012 13:00 2,4 C 98 % 1018,4 hPa 0,0 l/m W 0,00 h 86 W/m 6,3 km/h (2 Bft)
21.11.2012 14:00 3,1 C 97 % 1018,6 hPa 0,0 l/m W 0,00 h 57 W/m 5,7 km/h (1 Bft)
21.11.2012 15:00 3,5 C 97 % 1018,8 hPa 0,0 l/m W 0,00 h 27 W/m 6,5 km/h (2 Bft)
21.11.2012 16:00 3,2 C 96 % 1019,4 hPa 0,0 l/m SW 0,00 h 8 W/m 10,4 km/h (2 Bft)
21.11.2012 17:00 2,8 C 97 % 1020,1 hPa 0,0 l/m SW 0,00 h 0 W/m 10,3 km/h (2 Bft)
21.11.2012 18:00 2,6 C 97 % 1020,8 hPa 0,0 l/m S-SW 0,00 h 0 W/m 13,7 km/h (3 Bft)
21.11.2012 19:00 2,5 C 98 % 1021,5 hPa 0,0 l/m S-SW 0,00 h 0 W/m 9,5 km/h (2 Bft)
21.11.2012 20:00 2,6 C 98 % 1021,9 hPa 0,0 l/m S-SW 0,00 h 0 W/m 9,3 km/h (2 Bft)
21.11.2012 21:00 2,4 C 98 % 1022,4 hPa 0,0 l/m S-SW 0,00 h 0 W/m 7,6 km/h (2 Bft)
21.11.2012 22:00 2,3 C 98 % 1022,5 hPa 0,0 l/m S-SW 0,00 h 0 W/m 9,5 km/h (2 Bft)
21.11.2012 23:00 2,2 C 98 % 1023,0 hPa 0,0 l/m N 0,00 h 0 W/m 1,7 km/h (1 Bft)
22.11.2012 00:00 2,2 C 98 % 1023,5 hPa 0,0 l/m N 0,00 h 0 W/m 1,6 km/h (1 Bft)
22.11.2012 01:00 2,4 C 98 % 1024,0 hPa 0,0 l/m S-SW 0,00 h 0 W/m 2,8 km/h (1 Bft)
22.11.2012 02:00 2,7 C 99 % 1024,2 hPa 0,0 l/m S-SW 0,00 h 0 W/m 3,7 km/h (1 Bft)
22.11.2012 03:00 2,8 C 99 % 1024,3 hPa 0,0 l/m S-SW 0,00 h 0 W/m 2,1 km/h (1 Bft)
22.11.2012 04:00 3,0 C 99 % 1024,3 hPa 0,0 l/m N 0,00 h 0 W/m 0,1 km/h (0 Bft)
22.11.2012 05:00 3,2 C 99 % 1024,2 hPa 0,2 l/m N 0,00 h 0 W/m 0,8 km/h (0 Bft)
22.11.2012 06:00 3,2 C 99 % 1024,4 hPa 0,0 l/m N 0,00 h 0 W/m 0,5 km/h (0 Bft)
22.11.2012 07:00 3,5 C 99 % 1024,6 hPa 0,0 l/m N 0,00 h 0 W/m 0,1 km/h (0 Bft)
22.11.2012 08:00 3,8 C 99 % 1025,0 hPa 0,0 l/m W-SW 0,00 h 14 W/m 3,3 km/h (1 Bft)
22.11.2012 09:00 4,2 C 99 % 1024,9 hPa 0,0 l/m W-SW 0,00 h 19 W/m 1,7 km/h (1 Bft)
22.11.2012 10:00 4,6 C 99 % 1024,9 hPa 0,0 l/m W-SW 0,00 h 32 W/m 4,7 km/h (1 Bft)
22.11.2012 11:00 5,3 C 100 % 1024,6 hPa 0,0 l/m W 0,00 h 60 W/m 6,1 km/h (2 Bft)
22.11.2012 12:00 6,3 C 100 % 1024,2 hPa 0,0 l/m W 0,00 h 79 W/m 3,9 km/h (1 Bft)
22.11.2012 13:00 7,0 C 100 % 1023,7 hPa 0,0 l/m NO 0,00 h 86 W/m 7,8 km/h (2 Bft)
22.11.2012 14:00 6,9 C 99 % 1023,3 hPa 0,0 l/m NO 0,00 h 60 W/m 9,6 km/h (2 Bft)
22.11.2012 15:00 6,8 C 97 % 1023,4 hPa 0,0 l/m NO 0,00 h 17 W/m 9,1 km/h (2 Bft)
22.11.2012 16:00 6,8 C 97 % 1023,3 hPa 0,0 l/m O-NO 0,00 h 6 W/m 5,3 km/h (1 Bft)
22.11.2012 17:00 6,8 C 97 % 1022,9 hPa 0,0 l/m O-NO 0,00 h 0 W/m 4,5 km/h (1 Bft)
22.11.2012 18:00 6,7 C 96 % 1022,6 hPa 0,0 l/m O-NO 0,00 h 0 W/m 4,9 km/h (1 Bft)
22.11.2012 19:00 6,6 C 96 % 1022,1 hPa 0,0 l/m O-NO 0,00 h 0 W/m 4,4 km/h (1 Bft)
22.11.2012 20:00 6,5 C 96 % 1021,7 hPa 0,0 l/m O-NO 0,00 h 0 W/m 9,9 km/h (2 Bft)
22.11.2012 21:00 6,3 C 95 % 1021,3 hPa 0,0 l/m O-SO 0,00 h 0 W/m 12,2 km/h (2 Bft)
22.11.2012 22:00 6,2 C 95 % 1021,2 hPa 0,0 l/m O-SO 0,00 h 0 W/m 4,5 km/h (1 Bft)
22.11.2012 23:00 6,0 C 95 % 1021,1 hPa 0,0 l/m O-SO 0,00 h 0 W/m 3,5 km/h (1 Bft)
23.11.2012 00:00 5,8 C 95 % 1021,2 hPa 0,0 l/m N 0,00 h 0 W/m 0,5 km/h (0 Bft)
23.11.2012 01:00 5,8 C 95 % 1021,0 hPa 0,0 l/m O-SO 0,00 h 0 W/m 1,9 km/h (1 Bft)
23.11.2012 02:00 5,6 C 95 % 1021,1 hPa 0,0 l/m SW 0,00 h 0 W/m 4,0 km/h (1 Bft)
23.11.2012 03:00 5,6 C 95 % 1020,9 hPa 0,0 l/m W-SW 0,00 h 0 W/m 4,5 km/h (1 Bft)
23.11.2012 04:00 5,6 C 96 % 1020,6 hPa 0,0 l/m W-SW 0,00 h 0 W/m 3,7 km/h (1 Bft)
23.11.2012 05:00 5,6 C 96 % 1020,4 hPa 0,0 l/m W-SW 0,00 h 0 W/m 5,5 km/h (1 Bft)
23.11.2012 06:00 5,6 C 97 % 1020,4 hPa 0,0 l/m S-SW 0,00 h 0 W/m 7,4 km/h (2 Bft)
23.11.2012 07:00 5,4 C 97 % 1020,5 hPa 0,0 l/m S-SW 0,00 h 8 W/m 4,9 km/h (1 Bft)
23.11.2012 08:00 5,3 C 97 % 1020,6 hPa 0,0 l/m S-SW 0,08 h 44 W/m 5,6 km/h (1 Bft)
23.11.2012 09:00 5,5 C 98 % 1020,6 hPa 0,0 l/m S-SW 0,00 h 70 W/m 8,2 km/h (2 Bft)
23.11.2012 10:00 6,0 C 97 % 1020,6 hPa 0,0 l/m S-SW 0,17 h 146 W/m 11,4 km/h (2 Bft)
23.11.2012 11:00 7,0 C 92 % 1020,5 hPa 0,0 l/m SW 0,08 h 172 W/m 11,3 km/h (2 Bft)
23.11.2012 12:00 7,6 C 89 % 1020,4 hPa 0,0 l/m W-SW 0,17 h 184 W/m 9,3 km/h (2 Bft)
23.11.2012 13:00 8,4 C 87 % 1020,1 hPa 0,0 l/m S-SW 0,58 h 185 W/m 10,2 km/h (2 Bft)
23.11.2012 14:00 8,5 C 87 % 1019,7 hPa 0,0 l/m S-SW 0,33 h 130 W/m 11,3 km/h (2 Bft)
23.11.2012 15:00 8,0 C 88 % 1019,9 hPa 0,0 l/m S-SW 0,00 h 41 W/m 9,8 km/h (2 Bft)
23.11.2012 16:00 7,4 C 89 % 1020,1 hPa 0,0 l/m S-SW 0,00 h 9 W/m 3,7 km/h (1 Bft)
23.11.2012 17:00 6,7 C 90 % 1020,4 hPa 0,0 l/m N 0,00 h 0 W/m 0,1 km/h (0 Bft)
23.11.2012 18:00 5,9 C 91 % 1021,0 hPa 0,0 l/m N 0,00 h 0 W/m 0,4 km/h (0 Bft)
23.11.2012 19:00 5,4 C 92 % 1021,1 hPa 0,0 l/m N 0,00 h 0 W/m 0,1 km/h (0 Bft)
23.11.2012 20:00 4,9 C 94 % 1021,0 hPa 0,0 l/m S-SW 0,00 h 0 W/m 4,5 km/h (1 Bft)
23.11.2012 21:00 5,2 C 96 % 1021,0 hPa 0,0 l/m S-SW 0,00 h 0 W/m 7,6 km/h (2 Bft)
23.11.2012 22:00 5,3 C 96 % 1021,0 hPa 0,0 l/m S 0,00 h 0 W/m 4,5 km/h (1 Bft)
23.11.2012 23:00 5,1 C 96 % 1020,9 hPa 0,0 l/m N 0,00 h 0 W/m 0,9 km/h (0 Bft)
24.11.2012 00:00 4,7 C 95 % 1020,3 hPa 0,0 l/m S 0,00 h 0 W/m 1,9 km/h (1 Bft)
24.11.2012 01:00 4,6 C 96 % 1019,7 hPa 0,0 l/m S 0,00 h 0 W/m 3,9 km/h (1 Bft)
24.11.2012 02:00 4,6 C 96 % 1019,9 hPa 0,0 l/m W-NW 0,00 h 0 W/m 6,8 km/h (2 Bft)
24.11.2012 03:00 4,8 C 96 % 1020,1 hPa 0,0 l/m NW 0,00 h 0 W/m 5,3 km/h (1 Bft)
24.11.2012 04:00 5,0 C 96 % 1020,0 hPa 0,0 l/m NW 0,00 h 0 W/m 3,2 km/h (1 Bft)
24.11.2012 05:00 4,5 C 96 % 1020,0 hPa 0,0 l/m N 0,00 h 0 W/m 1,6 km/h (1 Bft)
24.11.2012 06:00 4,2 C 96 % 1020,0 hPa 0,0 l/m N 0,00 h 0 W/m 1,7 km/h (1 Bft)
24.11.2012 07:00 3,8 C 96 % 1020,2 hPa 0,0 l/m N 0,00 h 6 W/m 1,6 km/h (1 Bft)
24.11.2012 08:00 3,6 C 96 % 1020,5 hPa 0,0 l/m N 0,00 h 20 W/m 0,4 km/h (0 Bft)
24.11.2012 09:00 4,7 C 97 % 1020,5 hPa 0,0 l/m N 0,00 h 81 W/m 0,7 km/h (0 Bft)
24.11.2012 10:00 6,4 C 93 % 1020,6 hPa 0,0 l/m N 0,00 h 106 W/m 1,5 km/h (1 Bft)
24.11.2012 11:00 7,8 C 88 % 1019,9 hPa 0,0 l/m N 0,25 h 193 W/m 0,9 km/h (0 Bft)
24.11.2012 12:00 10,1 C 78 % 1019,0 hPa 0,0 l/m NW 1,00 h 321 W/m 4,9 km/h (1 Bft)
24.11.2012 13:00 11,5 C 71 % 1018,0 hPa 0,0 l/m S-SW 0,75 h 260 W/m 8,3 km/h (2 Bft)
24.11.2012 14:00 11,3 C 70 % 1017,4 hPa 0,0 l/m S-SW 0,00 h 94 W/m 2,7 km/h (1 Bft)
24.11.2012 15:00 11,2 C 70 % 1017,0 hPa 0,0 l/m N 0,00 h 33 W/m 0,0 km/h (0 Bft)
24.11.2012 16:00 10,6 C 75 % 1016,9 hPa 0,0 l/m N 0,00 h 7 W/m 0,0 km/h (0 Bft)
24.11.2012 17:00 9,2 C 80 % 1016,7 hPa 0,0 l/m N 0,00 h 0 W/m 0,9 km/h (0 Bft)
24.11.2012 18:00 8,2 C 85 % 1017,0 hPa 0,0 l/m N 0,00 h 0 W/m 1,3 km/h (1 Bft)
24.11.2012 19:00 7,6 C 88 % 1016,6 hPa 0,0 l/m S-SW 0,00 h 0 W/m 1,9 km/h (1 Bft)
24.11.2012 20:00 7,1 C 91 % 1015,7 hPa 0,0 l/m NW 0,00 h 0 W/m 5,6 km/h (1 Bft)
24.11.2012 21:00 7,0 C 92 % 1015,3 hPa 0,0 l/m N-NW 0,00 h 0 W/m 4,4 km/h (1 Bft)
24.11.2012 22:00 6,8 C 92 % 1015,3 hPa 0,0 l/m N-NW 0,00 h 0 W/m 8,3 km/h (2 Bft)
24.11.2012 23:00 6,5 C 93 % 1015,0 hPa 0,0 l/m N 0,00 h 0 W/m 1,7 km/h (1 Bft)
25.11.2012 00:00 6,1 C 94 % 1015,7 hPa 0,0 l/m N-NW 0,00 h 0 W/m 3,3 km/h (1 Bft)
25.11.2012 01:00 6,2 C 93 % 1015,9 hPa 0,0 l/m W 0,00 h 0 W/m 4,3 km/h (1 Bft)
25.11.2012 02:00 5,9 C 94 % 1016,3 hPa 0,0 l/m SW 0,00 h 0 W/m 8,4 km/h (2 Bft)
25.11.2012 03:00 6,3 C 94 % 1016,3 hPa 0,0 l/m SW 0,00 h 0 W/m 12,1 km/h (2 Bft)
25.11.2012 04:00 6,0 C 94 % 1016,2 hPa 0,0 l/m SW 0,00 h 0 W/m 10,9 km/h (2 Bft)
25.11.2012 05:00 5,2 C 94 % 1016,2 hPa 0,0 l/m SW 0,00 h 0 W/m 6,0 km/h (2 Bft)
25.11.2012 06:00 5,0 C 95 % 1016,0 hPa 0,0 l/m SW 0,00 h 0 W/m 11,4 km/h (2 Bft)
25.11.2012 07:00 6,1 C 91 % 1016,0 hPa 0,0 l/m SW 0,00 h 7 W/m 12,4 km/h (3 Bft)
25.11.2012 08:00 7,5 C 84 % 1016,2 hPa 0,0 l/m SW 0,00 h 30 W/m 11,5 km/h (2 Bft)
25.11.2012 09:00 8,6 C 83 % 1016,3 hPa 0,0 l/m SW 0,25 h 93 W/m 12,9 km/h (3 Bft)
25.11.2012 10:00 10,0 C 78 % 1016,3 hPa 0,0 l/m SW 0,58 h 150 W/m 15,7 km/h (3 Bft)
25.11.2012 11:00 10,4 C 79 % 1016,3 hPa 0,0 l/m SW 0,17 h 151 W/m 13,0 km/h (3 Bft)
25.11.2012 12:00 11,8 C 78 % 1016,0 hPa 0,0 l/m SW 0,00 h 106 W/m 19,6 km/h (3 Bft)
25.11.2012 13:00 12,6 C 76 % 1015,9 hPa 0,0 l/m W-SW 0,25 h 132 W/m 22,9 km/h (4 Bft)
25.11.2012 14:00 11,8 C 79 % 1016,2 hPa 0,0 l/m W-SW 0,00 h 32 W/m 22,1 km/h (4 Bft)
25.11.2012 15:00 11,3 C 79 % 1016,2 hPa 0,0 l/m SW 0,58 h 69 W/m 16,8 km/h (3 Bft)
25.11.2012 16:00 10,5 C 79 % 1016,1 hPa 0,0 l/m W-SW 0,25 h 16 W/m 15,8 km/h (3 Bft)
25.11.2012 17:00 9,3 C 82 % 1015,9 hPa 0,0 l/m W-SW 0,00 h 0 W/m 11,0 km/h (2 Bft)
25.11.2012 18:00 8,9 C 84 % 1016,1 hPa 0,0 l/m SW 0,00 h 0 W/m 7,0 km/h (2 Bft)
25.11.2012 19:00 8,4 C 86 % 1016,1 hPa 0,0 l/m SW 0,00 h 0 W/m 4,7 km/h (1 Bft)
25.11.2012 20:00 8,1 C 88 % 1016,2 hPa 0,0 l/m N 0,00 h 0 W/m 0,9 km/h (0 Bft)
25.11.2012 21:00 7,8 C 89 % 1016,3 hPa 0,0 l/m N 0,00 h 0 W/m 0,4 km/h (0 Bft)
25.11.2012 22:00 7,1 C 89 % 1015,8 hPa 0,0 l/m N 0,00 h 0 W/m 0,0 km/h (0 Bft)
25.11.2012 23:00 6,4 C 90 % 1015,4 hPa 0,0 l/m N 0,00 h 0 W/m 0,0 km/h (0 Bft)
Min-Datum _ 21.11.12 24.11.12 24.11.12 - - - - 19.11.12
_ Min-Zeit 06:35 13:40 23:30 - - - - 00:05
Minimum _ -0,2 C 67 % 1014,9 hPa - - - - 0,0 km/h (0 Bft)
Max-Datum _ 25.11.12 19.11.12 22.11.12 19.11.12 - 23.11.12 25.11.12 25.11.12
_ Max-Zeit 13:10 07:50 08:40 04:10 - 08:15 11:55 12:45
Maximum _ 12,9 C 100 % 1025,2 hPa 0,2 l/m - 0,08 h 434 W/m 35,4 km/h
SW (5 Bft)
Durchschnitt _ 4,6 C 94 % 1019,2 hPa #0,6 l/m SW #5:30 h 66 W/m 5,2 km/h (1 Bft)